Home   Weather   Thunder Bay   Past weeks

Flag for Canada Past Weather in Thunder Bay, Ontario, Canada — Yesterday and Last 2 Weeks

Now
64 °F

Scattered clouds.


Feels Like: 64 °F
Forecast: N/A
Wind: 6 mph from Southeast

Location: Thunder Bay

Current Time: Sep 29, 2016 at 6:09:34 PM

Latest Report: Sep 29, 2016 at 5:00 PM


Visibility: 20 mi

Pressure: 30.50 "Hg

Humidity: 60%

Dew Point: 50 °F

Location of Thunder BayLocation

Past Weather in Thunder Bay — Graph

°F

Thunder Bay Temperature Yesterday

Maximum temperature yesterday: 63 °F (at 4:00 PM)
Minimum temperature yesterday: 50 °F (at 6:00 AM)
Average temperature yesterday: 56 °F

High & Low Weather Summary for the Past Weeks

 TemperatureHumidityPressure
High75 °F (Sep 20, 3:00 PM)100% (Sep 14, 11:00 PM)30.55 "Hg (Sep 14, 11:00 PM)
Low37 °F (Sep 15, 4:00 AM)31% (Sep 20, 5:00 PM)29.44 "Hg (Sep 26, 4:00 PM)
Average57 °F82%29.98 "Hg
* Reported Sep 14 5:00 PM — Sep 29 5:00 PM, Thunder Bay, Weather by CustomWeather, © 2016

Note: Actual official high and low records may vary slightly from our data, if they occured in-between our weather recording intervals... More about our weather records

Advertising

Thunder Bay Weather History for the Previous 24 Hours

Scroll right to see more
 ConditionsComfort  
Time TempWeatherWind HumidityBarometerVisibility
5:00 PM
Thu, Sep 29
64 °FScattered clouds.6 mph60%30.50 "Hg20 mi
4:00 PM64 °FScattered clouds.No wind56%30.52 "Hg20 mi
3:00 PM63 °FBroken clouds.8 mph59%30.53 "Hg20 mi
2:00 PM63 °FScattered clouds.5 mph64%30.54 "Hg20 mi
1:00 PM63 °FScattered clouds.7 mph64%30.55 "Hg20 mi
12:00 PM59 °FScattered clouds.3 mph68%30.54 "Hg20 mi
11:00 AM57 °FScattered clouds.3 mph77%30.55 "Hg20 mi
10:00 AM54 °FPartly sunny.2 mph88%30.54 "Hg20 mi
9:00 AM48 °FPassing clouds.2 mph100%30.53 "Hg20 mi
8:00 AM45 °FFog.2 mph100%30.53 "Hg20 mi
7:00 AM46 °FPassing clouds.5 mph100%30.51 "Hg15 mi
6:00 AM48 °FPassing clouds.3 mph100%30.49 "Hg15 mi
5:00 AM46 °FOvercast.3 mph100%30.48 "Hg15 mi
4:00 AM46 °FPassing clouds.3 mph93%30.47 "Hg15 mi
3:00 AM43 °FPassing clouds.3 mph100%30.46 "Hg15 mi
2:00 AM45 °FPassing clouds.6 mph100%30.45 "Hg15 mi
1:00 AM45 °FPassing clouds.3 mph93%30.44 "Hg15 mi
12:00 AM48 °FPassing clouds.3 mph87%30.43 "Hg15 mi
11:00 PM
Wed, Sep 28
54 °FOvercast.No wind82%30.41 "Hg15 mi
10:00 PM55 °FOvercast.7 mph77%30.39 "Hg15 mi
9:00 PM55 °FPassing clouds.3 mph77%30.38 "Hg15 mi
8:00 PM57 °FPassing clouds.3 mph77%30.36 "Hg20 mi
7:00 PM59 °FPartly sunny.5 mph72%30.33 "Hg20 mi
6:00 PM59 °FOvercast.5 mph72%30.30 "Hg20 mi
Weather by CustomWeather, © 2016

See weather overviewHow to use our weather pages